Weather reports worldwide

Advertisment
Calvi, France (7754): temperature & dewpoint: 19.09.2018 12:00:00 - 25.09.2018 12:00:00 (CEST)Calvi, France (7754): temperature 5cm: 19.09.2018 12:00:00 - 25.09.2018 12:00:00 (CEST)Calvi, France (7754): wind speed & gusts: 19.09.2018 12:00:00 - 25.09.2018 12:00:00 (CEST)Calvi, France (7754): wind direction: 19.09.2018 12:00:00 - 25.09.2018 12:00:00 (CEST)Calvi, France (7754): reduced air pressure: 19.09.2018 12:00:00 - 25.09.2018 12:00:00 (CEST)Calvi, France (7754): visibility: 19.09.2018 12:00:00 - 25.09.2018 12:00:00 (CEST)Calvi, France (7754): precipitation: 19.09.2018 12:00:00 - 25.09.2018 12:00:00 (CEST)
Date & Time tt [°C] td [°C] tt 5cm [°C] ff [km/h] ff [kn] fx [km/h] fx [kn] dd ppp [hPa] vv [km] rr [mm]
25.09.2018 12:00:00 - - - - - - - - - - -
25.09.2018 11:00:00 25,5 6,2 25,6 34 18 52 28 NNE 1023,1 49 0,0
25.09.2018 10:00:00 24,9 5,6 25,4 29 16 48 26 NNE 1022,5 20 0,0
25.09.2018 09:00:00 24,5 6,7 21,5 21 11 34 19 N 1022,2 59 0,0
25.09.2018 08:00:00 21,7 8,9 21,1 16 9 38 20 NNW 1021,8 60 0,0
25.09.2018 07:00:00 22,2 8,3 21,3 18 10 34 19 NNW 1020,8 60 0,0
25.09.2018 06:00:00 21,9 9,4 21,1 18 10 38 21 NNW 1020,9 60 0,0
25.09.2018 05:00:00 22,2 9,7 21,6 22 12 34 18 NNW 1020,3 60 0,0
25.09.2018 04:00:00 23,5 9,5 22,8 19 10 32 17 NNW 1019,7 60 0,0
25.09.2018 03:00:00 24,0 10,3 23,5 20 11 33 18 NNW 1019,5 60 0,0
25.09.2018 02:00:00 25,2 10,3 21,9 16 9 28 15 N 1019,3 60 0,0
25.09.2018 01:00:00 22,2 16,9 21,1 7 4 13 7 S 1019,0 60 0,0
25.09.2018 00:00:00 21,1 16,9 20,4 4 2 12 7 SSW 1018,5 60 0,0
24.09.2018 23:00:00 20,9 16,5 20,4 9 5 14 8 SSW 1018,1 59 0,0
24.09.2018 22:00:00 21,1 16,3 20,8 6 3 17 9 SSW 1017,8 60 0,0
24.09.2018 21:00:00 22,1 16,6 21,5 12 6 17 9 S 1017,2 59 0,0
24.09.2018 20:00:00 22,9 16,7 22,3 4 2 8 5 SSW 1016,3 58 0,0
24.09.2018 19:00:00 24,2 17,4 24,3 6 3 19 11 NNW 1015,5 60 0,0
24.09.2018 18:00:00 25,8 16,9 27,5 11 6 23 13 NNW 1014,8 59 0,0
24.09.2018 17:00:00 26,4 16,3 29,5 13 7 27 15 NNW 1014,1 54 0,0
24.09.2018 16:00:00 27,2 16,8 29,0 11 6 29 16 NNW 1014,1 59 0,0
24.09.2018 15:00:00 28,4 16,3 33,1 13 7 27 14 N 1013,8 60 0,0
24.09.2018 14:00:00 29,3 16,1 31,8 7 4 28 15 N 1013,4 20 0,0
24.09.2018 13:00:00 28,9 15,8 31,9 16 9 31 17 WSW 1013,1 60 0,0
24.09.2018 12:00:00 27,9 16,5 31,2 17 9 55 30 WSW 1013,3 20 0,0
24.09.2018 11:00:00 28,3 16,2 28,9 26 14 50 27 SW 1013,4 60 0,0
24.09.2018 10:00:00 28,3 15,9 28,1 23 12 45 24 S 1013,3 60 0,0
24.09.2018 09:00:00 27,3 17,2 26,0 21 12 42 23 SSW 1013,3 52 0,0
24.09.2018 08:00:00 25,9 16,7 25,3 23 12 46 25 S 1012,5 50 0,0
24.09.2018 07:00:00 26,5 16,4 26,0 21 11 44 24 SW 1012,2 60 0,0
24.09.2018 06:00:00 27,6 15,6 26,7 21 11 49 26 SSW 1011,4 60 0,0
24.09.2018 05:00:00 27,0 15,4 24,8 23 12 45 24 SSW 1011,8 60 0,0
24.09.2018 04:00:00 25,2 15,2 24,7 19 10 40 21 SSW 1012,1 60 0,0
24.09.2018 03:00:00 25,9 14,7 25,4 21 11 41 22 S 1013,1 60 0,0
24.09.2018 02:00:00 27,2 14,6 25,8 27 15 47 26 SSW 1013,4 58 0,0
24.09.2018 01:00:00 26,6 14,4 23,8 19 10 34 19 S 1014,4 60 0,0
24.09.2018 00:00:00 24,2 16,7 22,7 15 8 39 21 S 1015,6 53 0,0
23.09.2018 23:00:00 23,4 15,4 22,5 8 4 28 15 NE 1016,4 59 0,0
23.09.2018 22:00:00 22,9 17,4 22,3 14 8 24 13 SSE 1016,4 60 0,0
23.09.2018 21:00:00 23,3 18,0 22,7 8 4 14 7 S 1016,9 47 0,0
23.09.2018 20:00:00 24,5 19,8 24,5 4 2 14 8 S 1017,0 47 0,0
23.09.2018 19:00:00 24,9 19,7 25,6 9 5 18 10 N 1016,6 36 0,0
23.09.2018 18:00:00 25,1 19,7 26,2 11 6 16 9 N 1016,9 18 0,0
23.09.2018 17:00:00 25,5 19,6 27,9 11 6 22 12 NNW 1017,2 20 0,0
23.09.2018 16:00:00 26,3 19,4 31,8 14 7 26 14 N 1017,5 19 0,0
23.09.2018 15:00:00 26,5 19,4 30,8 15 8 25 14 N 1017,9 20 0,0
23.09.2018 14:00:00 26,5 19,4 29,8 13 7 25 14 N 1018,4 19 0,0
23.09.2018 13:00:00 26,4 19,3 30,5 16 8 26 14 N 1019,0 20 0,0
23.09.2018 12:00:00 26,2 19,1 30,5 16 9 23 12 N 1019,3 19 0,0
23.09.2018 11:00:00 25,8 19,0 26,3 10 6 18 10 N 1019,0 20 0,0
23.09.2018 10:00:00 25,2 15,8 25,2 5 3 9 5 NE 1018,7 20 0,0
23.09.2018 09:00:00 22,4 16,0 18,0 0 0 14 7 N 1018,6 45 0,0
23.09.2018 08:00:00 17,7 12,2 15,3 6 3 15 8 SSW 1018,2 57 0,0
23.09.2018 07:00:00 16,0 12,0 15,3 4 2 11 6 SSW 1018,1 52 0,0
23.09.2018 06:00:00 16,3 11,2 16,0 9 5 11 6 SSE 1017,6 58 0,0
23.09.2018 05:00:00 16,6 11,7 16,2 4 2 12 6 S 1017,7 60 0,0
23.09.2018 04:00:00 17,7 12,2 17,0 11 6 16 9 S 1017,9 57 0,0
23.09.2018 03:00:00 17,0 12,5 16,6 13 7 16 9 S 1018,5 47 0,0
23.09.2018 02:00:00 17,3 13,8 17,0 7 4 11 6 S 1018,3 55 0,0
23.09.2018 01:00:00 18,1 14,4 17,4 3 2 14 8 SSW 1018,6 42 0,0
23.09.2018 00:00:00 18,6 15,1 18,0 7 4 11 6 S 1018,6 36 0,0
22.09.2018 23:00:00 19,4 15,7 18,4 8 4 11 6 S 1018,5 20 0,0
22.09.2018 22:00:00 20,9 15,7 19,9 0 0 11 6 N 1018,2 20 0,0
22.09.2018 21:00:00 22,6 15,9 21,8 9 5 21 11 S 1017,9 20 0,0
22.09.2018 20:00:00 22,9 16,0 22,4 9 5 13 7 SSW 1017,3 20 0,0
22.09.2018 19:00:00 25,0 15,9 25,2 8 4 11 6 S 1016,5 20 0,0
22.09.2018 18:00:00 27,1 16,1 29,8 5 3 25 14 SSW 1016,1 20 0,0
22.09.2018 17:00:00 28,5 15,8 32,1 8 4 30 16 NNW 1015,5 57 0,0
22.09.2018 16:00:00 30,0 13,7 32,0 16 9 54 29 SW 1014,7 55 0,0
22.09.2018 15:00:00 30,3 14,0 33,0 24 13 40 22 SW 1014,9 60 0,0
22.09.2018 14:00:00 30,7 15,9 31,3 16 8 43 23 SW 1015,4 60 0,0
22.09.2018 13:00:00 28,9 18,4 31,6 22 12 43 23 SW 1015,7 20 0,0
22.09.2018 12:00:00 29,4 17,9 32,6 21 11 34 18 SW 1015,8 19 0,0
22.09.2018 11:00:00 30,5 15,4 30,0 19 10 34 18 SW 1015,4 19 0,0
22.09.2018 10:00:00 29,2 16,0 29,0 18 10 28 15 SSW 1015,3 28 0,0
22.09.2018 09:00:00 27,4 16,1 25,5 6 3 24 13 NNW 1015,2 42 0,0
22.09.2018 08:00:00 25,7 14,5 23,1 19 11 27 15 S 1015,1 45 0,0
22.09.2018 07:00:00 25,9 12,7 24,3 11 6 26 14 SSW 1014,3 60 0,0
22.09.2018 06:00:00 25,6 12,4 24,2 17 9 28 15 SSW 1014,2 60 0,0
22.09.2018 05:00:00 25,1 13,0 24,4 18 10 28 15 S 1014,6 60 0,0
22.09.2018 04:00:00 25,8 13,3 24,9 19 10 40 22 SSW 1014,8 60 0,0
22.09.2018 03:00:00 25,6 14,4 24,7 20 11 40 21 SSW 1015,0 56 0,0
22.09.2018 02:00:00 25,3 15,0 23,4 16 9 35 19 S 1015,3 53 0,0
22.09.2018 01:00:00 25,4 15,4 22,7 24 13 35 19 S 1015,8 48 0,0
22.09.2018 00:00:00 24,3 15,5 22,2 11 6 25 13 S 1016,2 27 0,0
21.09.2018 23:00:00 23,2 17,2 21,3 13 7 18 10 S 1016,4 29 0,0
21.09.2018 22:00:00 21,3 17,3 20,9 8 5 14 8 S 1016,8 30 0,0
21.09.2018 21:00:00 21,5 17,5 21,4 8 4 12 6 S 1016,8 26 0,0
21.09.2018 20:00:00 22,9 19,1 22,4 5 3 11 6 SSW 1015,6 6 0,0
21.09.2018 19:00:00 25,4 20,6 25,1 10 5 16 9 N 1015,1 28 0,0
21.09.2018 18:00:00 27,9 18,3 30,7 11 6 16 9 N 1014,7 55 0,0
21.09.2018 17:00:00 28,2 16,5 33,1 8 4 21 11 N 1014,9 58 0,0
21.09.2018 16:00:00 28,4 18,8 33,5 16 9 26 14 N 1015,4 43 0,0
21.09.2018 15:00:00 28,5 18,3 31,8 16 9 25 14 NNW 1015,2 59 0,0
21.09.2018 14:00:00 27,8 18,2 31,4 15 8 24 13 NNW 1015,2 60 0,0
21.09.2018 13:00:00 28,4 17,0 32,1 16 9 23 13 N 1015,5 60 0,0
21.09.2018 12:00:00 27,8 16,7 30,6 10 5 21 11 NNW 1015,6 60 0,0
21.09.2018 11:00:00 26,7 19,6 27,8 12 7 19 10 N 1015,6 53 0,0
21.09.2018 10:00:00 27,2 17,7 26,3 4 2 10 5 SE 1015,5 19 0,0
21.09.2018 09:00:00 23,8 17,8 20,8 7 4 11 6 S 1015,3 20 0,0
21.09.2018 08:00:00 19,7 16,9 18,3 5 3 14 7 S 1015,6 35 0,0
21.09.2018 07:00:00 19,5 16,3 18,0 11 6 16 8 SSW 1015,1 24 0,0
21.09.2018 06:00:00 18,7 16,3 18,0 5 3 10 5 SSW 1015,3 24 0,0
21.09.2018 05:00:00 18,6 16,2 18,1 3 1 13 7 SSW 1015,4 26 0,0
21.09.2018 04:00:00 19,5 16,9 18,7 7 4 14 7 SSW 1015,6 28 0,0
21.09.2018 03:00:00 19,5 16,7 18,8 7 4 11 6 S 1015,8 24 0,0
21.09.2018 02:00:00 19,7 16,9 18,9 8 4 12 7 SSW 1015,9 22 0,0
21.09.2018 01:00:00 19,7 16,7 19,1 4 2 11 6 S 1016,1 24 0,0
21.09.2018 00:00:00 20,5 17,7 19,9 6 3 13 7 SW 1016,1 21 0,0
20.09.2018 23:00:00 20,8 17,6 20,4 7 4 10 5 S 1016,1 22 0,0
20.09.2018 22:00:00 21,6 18,0 20,7 2 1 7 4 SW 1015,9 20 0,0
20.09.2018 21:00:00 22,9 18,7 22,1 3 2 9 5 SSW 1015,6 25 0,0
20.09.2018 20:00:00 24,4 19,0 23,7 5 3 13 7 SSW 1014,9 20 0,0
20.09.2018 19:00:00 26,2 19,6 26,1 10 5 21 11 NW 1014,7 32 0,0
20.09.2018 18:00:00 27,8 19,3 29,9 10 5 32 17 NNW 1014,7 20 0,0
20.09.2018 17:00:00 28,8 18,9 32,0 20 11 42 23 N 1015,0 34 0,0
20.09.2018 16:00:00 29,4 17,2 32,9 28 15 49 27 N 1015,0 51 0,0
20.09.2018 15:00:00 29,6 17,4 31,7 29 16 51 28 N 1015,3 47 0,0
20.09.2018 14:00:00 29,5 18,3 31,5 32 17 47 26 N 1015,8 20 0,0
20.09.2018 13:00:00 28,9 18,4 31,3 34 18 50 27 N 1016,1 20 0,0
20.09.2018 12:00:00 28,8 18,9 31,2 24 13 41 22 N 1016,6 50 0,0
20.09.2018 11:00:00 28,2 19,4 27,3 21 11 33 18 N 1017,2 41 0,0
20.09.2018 10:00:00 26,0 19,6 25,6 10 5 19 10 NNW 1017,4 56 0,0
20.09.2018 09:00:00 22,5 19,9 19,5 6 4 14 7 S 1017,5 39 0,0
20.09.2018 08:00:00 19,3 17,8 18,3 7 4 14 7 S 1017,7 21 0,0
20.09.2018 07:00:00 19,0 17,3 18,3 2 1 12 7 ESE 1017,4 22 0,0
20.09.2018 06:00:00 19,4 17,7 18,8 5 3 14 7 SE 1017,7 25 0,0
20.09.2018 05:00:00 20,3 18,6 19,0 10 5 14 8 S 1017,8 29 0,0
20.09.2018 04:00:00 19,5 18,0 19,1 8 5 12 7 S 1017,9 24 0,0
20.09.2018 03:00:00 20,1 18,2 19,3 8 4 13 7 S 1018,1 21 0,0
20.09.2018 02:00:00 19,9 18,0 19,4 7 4 10 5 SSW 1018,5 20 0,0
20.09.2018 01:00:00 20,6 18,5 20,1 5 3 9 5 SSE 1018,6 30 0,0
20.09.2018 00:00:00 21,0 18,9 20,3 6 4 9 5 S 1018,9 24 0,0
19.09.2018 23:00:00 21,3 18,9 20,6 5 3 9 5 SSE 1018,7 32 0,0
19.09.2018 22:00:00 22,3 19,3 21,9 9 5 11 6 S 1018,3 34 0,0
19.09.2018 21:00:00 24,0 20,5 23,2 5 3 12 7 SW 1018,0 39 0,0
19.09.2018 20:00:00 24,7 21,4 24,4 7 4 21 11 WNW 1017,3 36 0,0
19.09.2018 19:00:00 26,1 20,7 26,2 11 6 21 11 WNW 1017,0 47 0,0
19.09.2018 18:00:00 28,5 20,2 31,4 11 6 26 14 NNW 1016,6 56 0,0
19.09.2018 17:00:00 29,0 19,3 30,6 19 10 35 19 N 1016,5 41 0,0
19.09.2018 16:00:00 29,8 19,5 32,2 22 12 31 17 N 1016,4 50 0,0
19.09.2018 15:00:00 29,7 19,7 31,8 16 9 34 19 N 1016,7 60 0,0
19.09.2018 14:00:00 28,9 20,9 30,4 14 7 29 16 W 1017,3 20 0,0
19.09.2018 13:00:00 28,7 20,4 32,0 13 7 26 14 NNW 1017,6 60 0,0
19.09.2018 12:00:00 27,9 19,1 30,9 13 7 26 14 NNW 1017,8 60 0,0

tt = temperature
td = dewpoint
tt 5cm = temperature 5cm
ff = wind speed
fx = gusts
dd = wind direction
ppp = reduced air pressure
vv = visibility
rr = precipitation

Next stations